Location: Aciu?a
(46.2833°N, 22.4500°E)
Time: 12:43:45
(UTC+00:00)

Okean-O - Pass Details

Date: 25 October 2021
Orbit: 639 x 640 km, 98.2° (Epoch: 07 December)

Event Time Altitude Azimuth Distance (km) Brightness Sun altitude
Exits shadow 18:26:35 33° 266° (W) 1,079 4.2 -31.6°
Drops below altitude 10° 18:30:30 10° 328° (NNW) 2,042 5.7 -32.2°
Sets 18:32:54 0° 338° (NNW) 2,957 6.5 -32.6°
